Time,TemperatureF,DewpointF,PressureIn,WindDirection,WindDirectionDegrees,WindSpeedMPH,WindSpeedGustMPH,Humidity,HourlyPrecipIn,Conditions,Clouds,dailyrainin,SoftwareType,DateUTC
2013-02-02 00:00:00,22.8,5.1,30.05,WNW,291,6.0,7.0,46,0.00,,,0.00,Wunderground v.1.15,2013-02-02 05:00:00,
2013-02-02 00:02:00,22.7,5.0,30.05,WNW,288,6.0,12.0,46,0.00,,,0.00,Wunderground v.1.15,2013-02-02 05:02:00,
2013-02-02 00:04:00,22.7,5.0,30.05,NW,307,6.0,12.0,46,0.00,,,0.00,Wunderground v.1.15,2013-02-02 05:04:00,
2013-02-02 00:07:00,22.7,5.0,30.05,WNW,301,8.0,12.0,46,0.00,,,0.00,Wunderground v.1.15,2013-02-02 05:07:00,
2013-02-02 00:12:00,22.7,5.0,30.05,WSW,256,6.0,10.0,46,0.00,,,0.00,Wunderground v.1.15,2013-02-02 05:12:00,
2013-02-02 00:17:00,22.6,4.9,30.05,WNW,290,1.0,10.0,46,0.00,,,0.00,Wunderground v.1.15,2013-02-02 05:17:00,
2013-02-02 00:22:00,22.5,5.3,30.05,NW,311,10.0,10.0,47,0.00,,,0.00,Wunderground v.1.15,2013-02-02 05:22:00,
2013-02-02 00:27:00,22.4,5.2,30.05,NW,314,5.0,10.0,47,0.00,,,0.00,Wunderground v.1.15,2013-02-02 05:27:00,
2013-02-02 00:33:00,22.4,5.2,30.05,WNW,290,7.0,7.0,47,0.00,,,0.00,Wunderground v.1.15,2013-02-02 05:33:00,
2013-02-02 00:38:00,22.3,5.6,30.05,WNW,291,5.0,7.0,48,0.00,,,0.00,Wunderground v.1.15,2013-02-02 05:38:00,
2013-02-02 00:43:00,22.2,5.5,30.05,West,278,4.0,9.0,48,0.00,,,0.00,Wunderground v.1.15,2013-02-02 05:43:00,
2013-02-02 00:48:00,22.1,5.4,30.06,West,263,7.0,9.0,48,0.00,,,0.00,Wunderground v.1.15,2013-02-02 05:48:00,
2013-02-02 00:53:00,22.1,5.4,30.05,WNW,302,9.0,9.0,48,0.00,,,0.00,Wunderground v.1.15,2013-02-02 05:53:00,
2013-02-02 00:59:00,22.0,5.3,30.06,NW,306,4.0,9.0,48,0.00,,,0.00,Wunderground v.1.15,2013-02-02 05:59:00,
2013-02-02 01:04:00,22.0,5.7,30.06,West,264,6.0,7.0,49,0.00,,,0.00,Wunderground v.1.15,2013-02-02 06:04:00,
2013-02-02 01:10:00,22.0,5.7,30.07,NW,322,8.0,8.0,49,0.00,,,0.00,Wunderground v.1.15,2013-02-02 06:10:00,
2013-02-02 01:15:00,21.9,5.6,30.07,West,279,9.0,10.0,49,0.00,,,0.00,Wunderground v.1.15,2013-02-02 06:15:00,
2013-02-02 01:21:00,21.9,6.1,30.07,WSW,245,5.0,8.0,50,0.00,,,0.00,Wunderground v.1.15,2013-02-02 06:21:00,
2013-02-02 01:26:00,21.8,6.0,30.08,NW,304,3.0,8.0,50,0.00,,,0.00,Wunderground v.1.15,2013-02-02 06:26:00,
2013-02-02 01:31:00,21.8,6.0,30.08,WNW,285,7.0,8.0,50,0.00,,,0.00,Wunderground v.1.15,2013-02-02 06:31:00,
2013-02-02 01:36:00,21.8,6.0,30.08,WNW,287,3.0,8.0,50,0.00,,,0.00,Wunderground v.1.15,2013-02-02 06:36:00,
2013-02-02 01:41:00,21.7,5.9,30.09,WSW,253,6.0,10.0,50,0.00,,,0.00,Wunderground v.1.15,2013-02-02 06:41:00,
2013-02-02 01:47:00,21.7,6.3,30.09,West,265,7.0,10.0,51,0.00,,,0.00,Wunderground v.1.15,2013-02-02 06:47:00,
2013-02-02 01:52:00,21.7,6.3,30.09,SSW,213,3.0,7.0,51,0.00,,,0.00,Wunderground v.1.15,2013-02-02 06:52:00,
2013-02-02 01:57:00,21.6,6.2,30.09,WSW,248,4.0,8.0,51,0.00,,,0.00,Wunderground v.1.15,2013-02-02 06:57:00,
2013-02-02 02:02:00,21.6,6.7,30.09,West,281,2.0,5.0,52,0.00,,,0.00,Wunderground v.1.15,2013-02-02 07:02:00,
2013-02-02 02:07:00,21.5,6.6,30.09,WNW,291,6.0,10.0,52,0.00,,,0.00,Wunderground v.1.15,2013-02-02 07:07:00,
2013-02-02 02:12:00,21.4,6.5,30.09,WNW,296,5.0,13.0,52,0.00,,,0.00,Wunderground v.1.15,2013-02-02 07:12:00,
2013-02-02 02:17:00,21.4,6.5,30.09,WNW,284,7.0,13.0,52,0.00,,,0.00,Wunderground v.1.15,2013-02-02 07:17:00,
2013-02-02 02:22:00,21.3,6.4,30.09,WNW,288,9.0,11.0,52,0.00,,,0.00,Wunderground v.1.15,2013-02-02 07:22:00,
2013-02-02 02:27:00,21.3,6.8,30.10,WNW,302,3.0,11.0,53,0.00,,,0.00,Wunderground v.1.15,2013-02-02 07:27:00,
2013-02-02 02:32:00,21.3,6.8,30.10,WNW,284,3.0,11.0,53,0.00,,,0.00,Wunderground v.1.15,2013-02-02 07:32:00,
2013-02-02 02:37:00,21.2,6.7,30.10,NW,319,3.0,11.0,53,0.00,,,0.00,Wunderground v.1.15,2013-02-02 07:37:00,
2013-02-02 02:42:00,21.2,6.7,30.10,WNW,302,4.0,6.0,53,0.00,,,0.00,Wunderground v.1.15,2013-02-02 07:42:00,
2013-02-02 02:47:00,21.1,6.6,30.10,West,279,3.0,10.0,53,0.00,,,0.00,Wunderground v.1.15,2013-02-02 07:47:00,
2013-02-02 02:52:00,21.0,6.9,30.10,West,272,8.0,9.0,54,0.00,,,0.00,Wunderground v.1.15,2013-02-02 07:52:00,
2013-02-02 02:57:00,21.0,6.9,30.10,WNW,290,5.0,11.0,54,0.00,,,0.00,Wunderground v.1.15,2013-02-02 07:57:00,
2013-02-02 03:05:00,20.9,6.8,30.10,WNW,283,6.0,10.0,54,0.00,,,0.00,Wunderground v.1.15,2013-02-02 08:05:00,
2013-02-02 03:10:00,20.9,6.8,30.10,WNW,284,6.0,7.0,54,0.00,,,0.00,Wunderground v.1.15,2013-02-02 08:10:00,
2013-02-02 03:15:00,20.9,6.8,30.10,WNW,299,5.0,10.0,54,0.00,,,0.00,Wunderground v.1.15,2013-02-02 08:15:00,
2013-02-02 03:20:00,20.9,6.8,30.10,West,261,5.0,9.0,54,0.00,,,0.00,Wunderground v.1.15,2013-02-02 08:20:00,
2013-02-02 03:25:00,20.8,6.7,30.10,WSW,251,5.0,9.0,54,0.00,,,0.00,Wunderground v.1.15,2013-02-02 08:25:00,
2013-02-02 03:31:00,20.8,5.9,30.11,West,259,3.0,12.0,52,0.00,,,0.00,Wunderground v.1.15,2013-02-02 08:31:00,
2013-02-02 03:36:00,20.7,5.8,30.11,WNW,286,5.0,14.0,52,0.00,,,0.00,Wunderground v.1.15,2013-02-02 08:36:00,
2013-02-02 03:41:00,20.7,5.8,30.11,West,277,4.0,8.0,52,0.00,,,0.00,Wunderground v.1.15,2013-02-02 08:41:00,
2013-02-02 03:46:00,20.6,5.7,30.11,West,273,3.0,9.0,52,0.00,,,0.00,Wunderground v.1.15,2013-02-02 08:46:00,
2013-02-02 03:51:00,20.6,5.7,30.11,WNW,283,2.0,5.0,52,0.00,,,0.00,Wunderground v.1.15,2013-02-02 08:51:00,
2013-02-02 03:56:00,20.5,5.6,30.12,WNW,296,4.0,8.0,52,0.00,,,0.00,Wunderground v.1.15,2013-02-02 08:56:00,
2013-02-02 04:01:00,20.5,5.6,30.12,NW,309,4.0,6.0,52,0.00,,,0.00,Wunderground v.1.15,2013-02-02 09:01:00,
2013-02-02 04:06:00,20.4,6.0,30.12,WNW,288,3.0,6.0,53,0.00,,,0.00,Wunderground v.1.15,2013-02-02 09:06:00,
2013-02-02 04:11:00,20.3,5.9,30.12,WNW,290,6.0,8.0,53,0.00,,,0.00,Wunderground v.1.15,2013-02-02 09:11:00,
2013-02-02 04:16:00,20.3,5.5,30.13,West,265,2.0,13.0,52,0.00,,,0.00,Wunderground v.1.15,2013-02-02 09:16:00,
2013-02-02 04:21:00,20.2,5.4,30.13,WNW,292,5.0,10.0,52,0.00,,,0.00,Wunderground v.1.15,2013-02-02 09:21:00,
2013-02-02 04:26:00,20.2,5.4,30.13,NNW,338,3.0,10.0,52,0.00,,,0.00,Wunderground v.1.15,2013-02-02 09:26:00,
2013-02-02 04:31:00,20.1,5.3,30.13,WNW,287,2.0,6.0,52,0.00,,,0.00,Wunderground v.1.15,2013-02-02 09:31:00,
2013-02-02 04:36:00,20.0,5.2,30.13,NW,304,3.0,11.0,52,0.00,,,0.00,Wunderground v.1.15,2013-02-02 09:36:00,
2013-02-02 04:41:00,20.0,5.6,30.14,NW,312,4.0,13.0,53,0.00,,,0.00,Wunderground v.1.15,2013-02-02 09:41:00,
2013-02-02 04:46:00,19.9,5.1,30.14,NW,309,4.0,13.0,52,0.00,,,0.00,Wunderground v.1.15,2013-02-02 09:46:00,
2013-02-02 04:51:00,19.9,5.5,30.14,WNW,294,1.0,6.0,53,0.00,,,0.00,Wunderground v.1.15,2013-02-02 09:51:00,
2013-02-02 04:56:00,19.9,5.1,30.14,NW,317,2.0,10.0,52,0.00,,,0.00,Wunderground v.1.15,2013-02-02 09:56:00,
2013-02-02 05:01:00,19.8,5.4,30.15,West,277,4.0,7.0,53,0.00,,,0.00,Wunderground v.1.15,2013-02-02 10:01:00,
2013-02-02 05:06:00,19.7,5.3,30.15,West,269,3.0,8.0,53,0.00,,,0.00,Wunderground v.1.15,2013-02-02 10:06:00,
2013-02-02 05:11:00,19.7,5.3,30.16,West,272,3.0,6.0,53,0.00,,,0.00,Wunderground v.1.15,2013-02-02 10:11:00,
2013-02-02 05:16:00,19.7,5.3,30.15,WSW,249,2.0,9.0,53,0.00,,,0.00,Wunderground v.1.15,2013-02-02 10:16:00,
2013-02-02 05:21:00,19.7,5.3,30.16,West,263,6.0,9.0,53,0.00,,,0.00,Wunderground v.1.15,2013-02-02 10:21:00,
2013-02-02 05:26:00,19.7,5.3,30.16,North,349,7.0,10.0,53,0.00,,,0.00,Wunderground v.1.15,2013-02-02 10:26:00,
2013-02-02 05:31:00,19.6,4.8,30.16,NW,311,7.0,9.0,52,0.00,,,0.00,Wunderground v.1.15,2013-02-02 10:31:00,
2013-02-02 05:36:00,19.5,5.1,30.16,WNW,296,9.0,10.0,53,0.00,,,0.00,Wunderground v.1.15,2013-02-02 10:36:00,
2013-02-02 05:41:00,19.4,5.0,30.16,West,266,6.0,9.0,53,0.00,,,0.00,Wunderground v.1.15,2013-02-02 10:41:00,
2013-02-02 05:46:00,19.3,4.9,30.16,WNW,296,4.0,12.0,53,0.00,,,0.00,Wunderground v.1.15,2013-02-02 10:46:00,
2013-02-02 05:51:00,19.3,4.5,30.16,West,280,2.0,7.0,52,0.00,,,0.00,Wunderground v.1.15,2013-02-02 10:51:00,
2013-02-02 05:56:00,19.3,4.9,30.16,WNW,294,2.0,7.0,53,0.00,,,0.00,Wunderground v.1.15,2013-02-02 10:56:00,
2013-02-02 06:01:00,19.2,4.8,30.16,WNW,294,1.0,3.0,53,0.00,,,0.00,Wunderground v.1.15,2013-02-02 11:01:00,
2013-02-02 06:06:00,19.1,4.8,30.16,WNW,288,4.0,7.0,53,0.00,,,0.00,Wunderground v.1.15,2013-02-02 11:06:00,
2013-02-02 06:11:00,19.1,5.2,30.16,WNW,293,3.0,6.0,54,0.00,,,0.00,Wunderground v.1.15,2013-02-02 11:11:00,
2013-02-02 06:16:00,19.0,5.1,30.16,West,264,3.0,6.0,54,0.00,,,0.00,Wunderground v.1.15,2013-02-02 11:16:00,
2013-02-02 06:21:00,18.9,5.4,30.16,West,275,7.0,8.0,55,0.00,,,0.00,Wunderground v.1.15,2013-02-02 11:21:00,
2013-02-02 06:26:00,18.9,5.4,30.17,West,281,5.0,8.0,55,0.00,,,0.00,Wunderground v.1.15,2013-02-02 11:26:00,
2013-02-02 06:31:00,18.8,5.3,30.17,WNW,290,1.0,5.0,55,0.00,,,0.00,Wunderground v.1.15,2013-02-02 11:31:00,
2013-02-02 06:36:00,18.8,5.3,30.17,West,273,2.0,6.0,55,0.00,,,0.00,Wunderground v.1.15,2013-02-02 11:36:00,
2013-02-02 06:41:00,18.7,5.2,30.17,WNW,286,5.0,7.0,55,0.00,,,0.00,Wunderground v.1.15,2013-02-02 11:41:00,
2013-02-02 06:46:00,18.6,5.5,30.17,WSW,258,3.0,7.0,56,0.00,,,0.00,Wunderground v.1.15,2013-02-02 11:46:00,
2013-02-02 06:51:00,18.6,4.7,30.18,WNW,293,5.0,7.0,54,0.00,,,0.00,Wunderground v.1.15,2013-02-02 11:51:00,
2013-02-02 06:56:00,18.6,5.1,30.18,WNW,286,3.0,7.0,55,0.00,,,0.00,Wunderground v.1.15,2013-02-02 11:56:00,
2013-02-02 07:01:00,18.6,5.1,30.18,West,261,4.0,5.0,55,0.00,,,0.00,Wunderground v.1.15,2013-02-02 12:01:00,
2013-02-02 07:06:00,18.5,5.0,30.18,West,279,6.0,8.0,55,0.00,,,0.00,Wunderground v.1.15,2013-02-02 12:06:00,
2013-02-02 07:11:00,18.5,4.6,30.19,West,264,4.0,7.0,54,0.00,,,0.00,Wunderground v.1.15,2013-02-02 12:11:00,
2013-02-02 07:16:00,18.5,4.6,30.19,West,269,3.0,7.0,54,0.00,,,0.00,Wunderground v.1.15,2013-02-02 12:16:00,
2013-02-02 07:21:00,18.5,4.6,30.19,WNW,284,3.0,7.0,54,0.00,,,0.00,Wunderground v.1.15,2013-02-02 12:21:00,
2013-02-02 07:26:00,18.5,4.6,30.19,WNW,300,3.0,8.0,54,0.00,,,0.00,Wunderground v.1.15,2013-02-02 12:26:00,
2013-02-02 07:31:00,18.6,4.7,30.20,West,265,2.0,6.0,54,0.00,,,0.00,Wunderground v.1.15,2013-02-02 12:31:00,
2013-02-02 07:36:00,18.6,4.7,30.20,WSW,258,3.0,6.0,54,0.00,,,0.00,Wunderground v.1.15,2013-02-02 12:36:00,
2013-02-02 07:41:00,18.7,4.8,30.19,WSW,238,3.0,4.0,54,0.00,,,0.00,Wunderground v.1.15,2013-02-02 12:41:00,
2013-02-02 07:46:00,18.8,4.5,30.19,WSW,253,2.0,6.0,53,0.00,,,0.00,Wunderground v.1.15,2013-02-02 12:46:00,
2013-02-02 07:51:00,18.9,4.6,30.19,WSW,254,2.0,5.0,53,0.00,,,0.00,Wunderground v.1.15,2013-02-02 12:51:00,
2013-02-02 07:56:00,18.9,4.6,30.20,WNW,300,4.0,6.0,53,0.00,,,0.00,Wunderground v.1.15,2013-02-02 12:56:00,
2013-02-02 08:01:00,19.1,5.2,30.20,West,281,2.0,7.0,54,0.00,,,0.00,Wunderground v.1.15,2013-02-02 13:01:00,
2013-02-02 08:06:00,19.2,4.8,30.20,WSW,240,5.0,7.0,53,0.00,,,0.00,Wunderground v.1.15,2013-02-02 13:06:00,
2013-02-02 08:11:00,19.4,4.6,30.20,NW,304,7.0,9.0,52,0.00,,,0.00,Wunderground v.1.15,2013-02-02 13:11:00,
2013-02-02 08:16:00,19.7,4.5,30.20,NNW,330,8.0,12.0,51,0.00,,,0.00,Wunderground v.1.15,2013-02-02 13:16:00,
2013-02-02 08:21:00,19.7,4.0,30.20,WNW,295,1.0,10.0,50,0.00,,,0.00,Wunderground v.1.15,2013-02-02 13:21:00,
2013-02-02 08:26:00,19.8,4.1,30.20,WNW,302,0.0,10.0,50,0.00,,,0.00,Wunderground v.1.15,2013-02-02 13:26:00,
2013-02-02 08:31:00,20.0,4.3,30.20,West,279,3.0,9.0,50,0.00,,,0.00,Wunderground v.1.15,2013-02-02 13:31:00,
2013-02-02 08:36:00,20.2,4.5,30.21,West,265,7.0,10.0,50,0.00,,,0.00,Wunderground v.1.15,2013-02-02 13:36:00,
2013-02-02 08:41:00,20.5,4.3,30.21,WSW,246,6.0,9.0,49,0.00,,,0.00,Wunderground v.1.15,2013-02-02 13:41:00,
2013-02-02 08:46:00,20.7,4.5,30.21,West,269,5.0,10.0,49,0.00,,,0.00,Wunderground v.1.15,2013-02-02 13:46:00,
2013-02-02 08:51:00,20.8,4.2,30.21,West,263,5.0,8.0,48,0.00,,,0.00,Wunderground v.1.15,2013-02-02 13:51:00,
2013-02-02 08:56:00,21.0,4.8,30.21,WSW,257,2.0,9.0,49,0.00,,,0.00,Wunderground v.1.15,2013-02-02 13:56:00,
2013-02-02 09:01:00,21.3,4.6,30.21,West,277,4.0,6.0,48,0.00,,,0.00,Wunderground v.1.15,2013-02-02 14:01:00,
2013-02-02 09:06:00,21.5,4.8,30.22,West,270,2.0,10.0,48,0.00,,,0.00,Wunderground v.1.15,2013-02-02 14:06:00,
2013-02-02 09:11:00,21.7,4.5,30.22,West,279,4.0,9.0,47,0.00,,,0.00,Wunderground v.1.15,2013-02-02 14:11:00,
2013-02-02 09:16:00,21.8,4.6,30.22,WNW,285,3.0,10.0,47,0.00,,,0.00,Wunderground v.1.15,2013-02-02 14:16:00,
2013-02-02 09:21:00,22.1,4.9,30.22,WSW,248,4.0,8.0,47,0.00,,,0.00,Wunderground v.1.15,2013-02-02 14:21:00,
2013-02-02 09:26:00,22.5,4.8,30.22,WNW,300,8.0,11.0,46,0.00,,,0.00,Wunderground v.1.15,2013-02-02 14:26:00,
2013-02-02 09:31:00,22.5,3.8,30.21,West,267,6.0,7.0,44,0.00,,,0.00,Wunderground v.1.15,2013-02-02 14:31:00,
2013-02-02 09:36:00,22.5,4.3,30.21,WSW,241,6.0,8.0,45,0.00,,,0.00,Wunderground v.1.15,2013-02-02 14:36:00,
2013-02-02 09:41:00,22.7,4.0,30.21,NW,314,5.0,8.0,44,0.00,,,0.00,Wunderground v.1.15,2013-02-02 14:41:00,
2013-02-02 09:46:00,22.8,4.6,30.21,NW,320,8.0,8.0,45,0.00,,,0.00,Wunderground v.1.15,2013-02-02 14:46:00,
2013-02-02 09:51:00,23.0,4.8,30.20,NW,306,3.0,7.0,45,0.00,,,0.00,Wunderground v.1.15,2013-02-02 14:51:00,
2013-02-02 09:56:00,23.3,4.6,30.20,NW,310,2.0,8.0,44,0.00,,,0.00,Wunderground v.1.15,2013-02-02 14:56:00,
2013-02-02 10:01:00,23.6,4.8,30.20,SSW,197,6.0,7.0,44,0.00,,,0.00,Wunderground v.1.15,2013-02-02 15:01:00,
2013-02-02 10:07:00,24.0,4.7,30.20,NW,313,4.0,7.0,43,0.00,,,0.00,Wunderground v.1.15,2013-02-02 15:07:00,
2013-02-02 10:12:00,24.4,5.1,30.20,SW,228,1.0,5.0,43,0.00,,,0.00,Wunderground v.1.15,2013-02-02 15:12:00,
2013-02-02 10:17:00,24.9,5.0,30.20,SSE,167,1.0,5.0,42,0.00,,,0.00,Wunderground v.1.15,2013-02-02 15:17:00,
2013-02-02 10:22:00,25.2,4.8,30.20,WNW,300,8.0,8.0,41,0.00,,,0.00,Wunderground v.1.15,2013-02-02 15:22:00,
2013-02-02 10:27:00,25.1,5.2,30.20,WNW,290,3.0,11.0,42,0.00,,,0.00,Wunderground v.1.15,2013-02-02 15:27:00,
2013-02-02 10:32:00,25.1,4.7,30.20,WSW,249,2.0,5.0,41,0.00,,,0.00,Wunderground v.1.15,2013-02-02 15:32:00,
2013-02-02 10:37:00,25.7,6.3,30.20,West,268,5.0,10.0,43,0.00,,,0.00,Wunderground v.1.15,2013-02-02 15:37:00,
2013-02-02 10:42:00,26.0,5.5,30.19,NW,313,4.0,9.0,41,0.00,,,0.00,Wunderground v.1.15,2013-02-02 15:42:00,
2013-02-02 10:47:00,25.8,4.8,30.19,WSW,242,4.0,9.0,40,0.00,,,0.00,Wunderground v.1.15,2013-02-02 15:47:00,
2013-02-02 10:52:00,26.0,6.0,30.19,WNW,300,2.0,5.0,42,0.00,,,0.00,Wunderground v.1.15,2013-02-02 15:52:00,
2013-02-02 10:57:00,26.5,6.5,30.19,West,265,5.0,10.0,42,0.00,,,0.00,Wunderground v.1.15,2013-02-02 15:57:00,
2013-02-02 11:02:00,27.0,6.4,30.19,WSW,257,6.0,9.0,41,0.00,,,0.00,Wunderground v.1.15,2013-02-02 16:02:00,
2013-02-02 11:07:00,27.2,6.0,30.18,WSW,254,2.0,10.0,40,0.00,,,0.00,Wunderground v.1.15,2013-02-02 16:07:00,
2013-02-02 11:12:00,27.4,6.8,30.18,WSW,256,9.0,10.0,41,0.00,,,0.00,Wunderground v.1.15,2013-02-02 16:12:00,
2013-02-02 11:17:00,27.4,6.2,30.18,WSW,247,4.0,10.0,40,0.00,,,0.00,Wunderground v.1.15,2013-02-02 16:17:00,
2013-02-02 11:22:00,27.3,5.6,30.17,West,280,2.0,5.0,39,0.00,,,0.00,Wunderground v.1.15,2013-02-02 16:22:00,
2013-02-02 11:27:00,27.5,5.7,30.17,NW,313,2.0,5.0,39,0.00,,,0.00,Wunderground v.1.15,2013-02-02 16:27:00,
2013-02-02 11:32:00,27.7,6.5,30.17,NW,317,3.0,7.0,40,0.00,,,0.00,Wunderground v.1.15,2013-02-02 16:32:00,
2013-02-02 11:37:00,27.9,6.7,30.17,WNW,298,3.0,9.0,40,0.00,,,0.00,Wunderground v.1.15,2013-02-02 16:37:00,
2013-02-02 11:42:00,28.1,6.8,30.16,WNW,288,3.0,4.0,40,0.00,,,0.00,Wunderground v.1.15,2013-02-02 16:42:00,
2013-02-02 11:47:00,28.8,7.5,30.16,SSW,206,7.0,8.0,40,0.00,,,0.00,Wunderground v.1.15,2013-02-02 16:47:00,
2013-02-02 11:52:00,29.5,6.4,30.16,SW,232,2.0,4.0,37,0.00,,,0.00,Wunderground v.1.15,2013-02-02 16:52:00,
2013-02-02 11:57:00,30.0,8.0,30.15,SW,219,6.0,7.0,39,0.00,,,0.00,Wunderground v.1.15,2013-02-02 16:57:00,
2013-02-02 12:02:00,30.1,6.9,30.15,West,275,2.0,7.0,37,0.00,,,0.00,Wunderground v.1.15,2013-02-02 17:02:00,
2013-02-02 12:07:00,30.1,7.5,30.14,SW,232,6.0,8.0,38,0.00,,,0.00,Wunderground v.1.15,2013-02-02 17:07:00,
2013-02-02 12:12:00,30.5,7.9,30.14,SW,230,1.0,8.0,38,0.00,,,0.00,Wunderground v.1.15,2013-02-02 17:12:00,
2013-02-02 12:17:00,30.9,8.2,30.14,WSW,246,4.0,9.0,38,0.00,,,0.00,Wunderground v.1.15,2013-02-02 17:17:00,
2013-02-02 12:22:00,31.1,7.8,30.14,SSW,206,8.0,15.0,37,0.00,,,0.00,Wunderground v.1.15,2013-02-02 17:22:00,
2013-02-02 12:27:00,31.0,7.7,30.13,West,259,2.0,15.0,37,0.00,,,0.00,Wunderground v.1.15,2013-02-02 17:27:00,
2013-02-02 12:32:00,30.7,8.1,30.13,SSW,210,3.0,12.0,38,0.00,,,0.00,Wunderground v.1.15,2013-02-02 17:32:00,
2013-02-02 12:37:00,30.6,8.0,30.13,WSW,244,1.0,12.0,38,0.00,,,0.00,Wunderground v.1.15,2013-02-02 17:37:00,
2013-02-02 12:42:00,30.8,7.6,30.13,SSW,204,1.0,9.0,37,0.00,,,0.00,Wunderground v.1.15,2013-02-02 17:42:00,
2013-02-02 12:47:00,30.9,7.6,30.13,WSW,238,4.0,9.0,37,0.00,,,0.00,Wunderground v.1.15,2013-02-02 17:47:00,
2013-02-02 12:52:00,31.1,7.2,30.12,SW,227,4.0,7.0,36,0.00,,,0.00,Wunderground v.1.15,2013-02-02 17:52:00,
2013-02-02 12:57:00,31.0,7.7,30.12,SSW,213,3.0,8.0,37,0.00,,,0.00,Wunderground v.1.15,2013-02-02 17:57:00,
2013-02-02 13:02:00,31.0,8.3,30.12,West,266,12.0,12.0,38,0.00,,,0.00,Wunderground v.1.15,2013-02-02 18:02:00,
2013-02-02 13:07:00,30.7,8.1,30.11,SW,229,8.0,12.0,38,0.00,,,0.00,Wunderground v.1.15,2013-02-02 18:07:00,
2013-02-02 13:12:00,30.6,8.0,30.11,West,268,5.0,12.0,38,0.00,,,0.00,Wunderground v.1.15,2013-02-02 18:12:00,
2013-02-02 13:17:00,30.8,8.1,30.10,South,187,7.0,13.0,38,0.00,,,0.00,Wunderground v.1.15,2013-02-02 18:17:00,
2013-02-02 13:22:00,31.1,8.4,30.10,WSW,246,6.0,10.0,38,0.00,,,0.00,Wunderground v.1.15,2013-02-02 18:22:00,
2013-02-02 13:27:00,31.2,8.5,30.10,SW,229,4.0,14.0,38,0.00,,,0.00,Wunderground v.1.15,2013-02-02 18:27:00,
2013-02-02 13:32:00,31.0,8.9,30.10,South,189,10.0,10.0,39,0.00,,,0.00,Wunderground v.1.15,2013-02-02 18:32:00,
2013-02-02 13:37:00,31.0,8.3,30.09,SSE,159,4.0,14.0,38,0.00,,,0.00,Wunderground v.1.15,2013-02-02 18:37:00,
2013-02-02 13:42:00,31.1,9.0,30.09,SW,221,3.0,9.0,39,0.00,,,0.00,Wunderground v.1.15,2013-02-02 18:42:00,
2013-02-02 13:47:00,31.3,8.0,30.09,WSW,247,7.0,14.0,37,0.00,,,0.00,Wunderground v.1.15,2013-02-02 18:47:00,
2013-02-02 13:52:00,31.6,8.9,30.09,WSW,238,7.0,10.0,38,0.00,,,0.00,Wunderground v.1.15,2013-02-02 18:52:00,
2013-02-02 13:57:00,31.6,8.9,30.09,SSW,213,5.0,10.0,38,0.00,,,0.00,Wunderground v.1.15,2013-02-02 18:57:00,
2013-02-02 14:02:00,31.7,9.5,30.08,SSW,200,10.0,15.0,39,0.00,,,0.00,Wunderground v.1.15,2013-02-02 19:02:00,
2013-02-02 14:07:00,32.1,8.7,30.08,SW,218,6.0,15.0,37,0.00,,,0.00,Wunderground v.1.15,2013-02-02 19:07:00,
2013-02-02 14:12:00,32.3,9.5,30.08,SW,234,2.0,12.0,38,0.00,,,0.00,Wunderground v.1.15,2013-02-02 19:12:00,
2013-02-02 14:17:00,32.3,9.5,30.08,WSW,241,8.0,12.0,38,0.00,,,0.00,Wunderground v.1.15,2013-02-02 19:17:00,
2013-02-02 14:22:00,32.2,8.8,30.08,WNW,283,4.0,12.0,37,0.00,,,0.00,Wunderground v.1.15,2013-02-02 19:22:00,
2013-02-02 14:27:00,32.0,9.2,30.07,WSW,244,6.0,12.0,38,0.00,,,0.00,Wunderground v.1.15,2013-02-02 19:27:00,
2013-02-02 14:32:00,31.7,9.0,30.07,SW,219,6.0,10.0,38,0.00,,,0.00,Wunderground v.1.15,2013-02-02 19:32:00,
2013-02-02 14:37:00,31.5,9.4,30.07,SW,226,4.0,14.0,39,0.00,,,0.00,Wunderground v.1.15,2013-02-02 19:37:00,
2013-02-02 14:42:00,31.3,9.2,30.07,SSW,205,5.0,11.0,39,0.00,,,0.00,Wunderground v.1.15,2013-02-02 19:42:00,
2013-02-02 14:47:00,31.0,9.5,30.07,SSW,203,7.0,13.0,40,0.00,,,0.00,Wunderground v.1.15,2013-02-02 19:47:00,
2013-02-02 14:52:00,30.8,9.3,30.07,SW,214,3.0,8.0,40,0.00,,,0.00,Wunderground v.1.15,2013-02-02 19:52:00,
2013-02-02 14:57:00,30.6,8.5,30.07,South,171,9.0,10.0,39,0.00,,,0.00,Wunderground v.1.15,2013-02-02 19:57:00,
2013-02-02 15:02:00,30.5,9.0,30.06,SW,231,4.0,11.0,40,0.00,,,0.00,Wunderground v.1.15,2013-02-02 20:02:00,
2013-02-02 15:07:00,30.3,8.8,30.06,SW,221,8.0,15.0,40,0.00,,,0.00,Wunderground v.1.15,2013-02-02 20:07:00,
2013-02-02 15:12:00,30.3,8.8,30.06,SW,217,3.0,8.0,40,0.00,,,0.00,Wunderground v.1.15,2013-02-02 20:12:00,
2013-02-02 15:17:00,30.3,8.8,30.06,WSW,246,6.0,8.0,40,0.00,,,0.00,Wunderground v.1.15,2013-02-02 20:17:00,
2013-02-02 15:23:00,30.3,9.4,30.06,SSW,201,5.0,10.0,41,0.00,,,0.00,Wunderground v.1.15,2013-02-02 20:23:00,
2013-02-02 15:28:00,30.3,8.3,30.05,South,189,9.0,10.0,39,0.00,,,0.00,Wunderground v.1.15,2013-02-02 20:28:00,
2013-02-02 15:33:00,30.3,9.4,30.05,SW,233,9.0,9.0,41,0.00,,,0.00,Wunderground v.1.15,2013-02-02 20:33:00,
2013-02-02 15:38:00,30.3,7.7,30.05,SSW,196,5.0,10.0,38,0.00,,,0.00,Wunderground v.1.15,2013-02-02 20:38:00,
2013-02-02 15:44:00,30.3,8.3,30.05,SSW,194,5.0,6.0,39,0.00,,,0.00,Wunderground v.1.15,2013-02-02 20:44:00,
2013-02-02 15:49:00,30.3,8.8,30.05,SW,223,3.0,9.0,40,0.00,,,0.00,Wunderground v.1.15,2013-02-02 20:49:00,
2013-02-02 15:54:00,30.3,8.8,30.05,WSW,252,2.0,8.0,40,0.00,,,0.00,Wunderground v.1.15,2013-02-02 20:54:00,
2013-02-02 15:59:00,30.3,7.7,30.04,SW,233,5.0,11.0,38,0.00,,,0.00,Wunderground v.1.15,2013-02-02 20:59:00,
2013-02-02 16:04:00,30.3,8.3,30.05,SW,227,2.0,13.0,39,0.00,,,0.00,Wunderground v.1.15,2013-02-02 21:04:00,
2013-02-02 16:09:00,30.3,8.8,30.04,SW,235,4.0,13.0,40,0.00,,,0.00,Wunderground v.1.15,2013-02-02 21:09:00,
2013-02-02 16:14:00,30.2,9.3,30.04,SW,233,4.0,10.0,41,0.00,,,0.00,Wunderground v.1.15,2013-02-02 21:14:00,
2013-02-02 16:19:00,30.1,8.7,30.05,WSW,249,3.0,10.0,40,0.00,,,0.00,Wunderground v.1.15,2013-02-02 21:19:00,
2013-02-02 16:24:00,30.1,8.7,30.04,SW,233,2.0,8.0,40,0.00,,,0.00,Wunderground v.1.15,2013-02-02 21:24:00,
2013-02-02 16:29:00,30.1,9.2,30.04,SSW,203,7.0,10.0,41,0.00,,,0.00,Wunderground v.1.15,2013-02-02 21:29:00,
2013-02-02 16:34:00,29.9,8.5,30.03,SSW,192,5.0,13.0,40,0.00,,,0.00,Wunderground v.1.15,2013-02-02 21:34:00,
2013-02-02 16:39:00,29.8,8.4,30.03,SW,229,5.0,13.0,40,0.00,,,0.00,Wunderground v.1.15,2013-02-02 21:39:00,
2013-02-02 16:44:00,29.8,8.9,30.03,SW,227,5.0,12.0,41,0.00,,,0.00,Wunderground v.1.15,2013-02-02 21:44:00,
2013-02-02 16:49:00,29.7,8.8,30.04,WSW,245,6.0,14.0,41,0.00,,,0.00,Wunderground v.1.15,2013-02-02 21:49:00,
2013-02-02 16:54:00,29.6,8.2,30.04,SW,217,8.0,12.0,40,0.00,,,0.00,Wunderground v.1.15,2013-02-02 21:54:00,
2013-02-02 16:59:00,29.5,8.7,30.04,SSW,213,12.0,12.0,41,0.00,,,0.00,Wunderground v.1.15,2013-02-02 21:59:00,
2013-02-02 17:04:00,29.4,8.6,30.04,SSW,203,6.0,10.0,41,0.00,,,0.00,Wunderground v.1.15,2013-02-02 22:04:00,
2013-02-02 17:09:00,29.3,9.0,30.04,WSW,242,5.0,11.0,42,0.00,,,0.00,Wunderground v.1.15,2013-02-02 22:09:00,
2013-02-02 17:14:00,29.2,8.4,30.03,SSW,200,2.0,9.0,41,0.00,,,0.00,Wunderground v.1.15,2013-02-02 22:14:00,
2013-02-02 17:19:00,29.2,8.4,30.04,SW,217,6.0,9.0,41,0.00,,,0.00,Wunderground v.1.15,2013-02-02 22:19:00,
2013-02-02 17:24:00,29.2,8.4,30.04,SW,233,4.0,9.0,41,0.00,,,0.00,Wunderground v.1.15,2013-02-02 22:24:00,
2013-02-02 17:29:00,29.1,7.7,30.03,SW,222,5.0,11.0,40,0.00,,,0.00,Wunderground v.1.15,2013-02-02 22:29:00,
2013-02-02 17:34:00,29.1,8.3,30.04,SSW,203,3.0,13.0,41,0.00,,,0.00,Wunderground v.1.15,2013-02-02 22:34:00,
2013-02-02 17:39:00,29.0,8.2,30.04,SW,236,8.0,14.0,41,0.00,,,0.00,Wunderground v.1.15,2013-02-02 22:39:00,
2013-02-02 17:44:00,28.9,7.6,30.04,South,190,9.0,12.0,40,0.00,,,0.00,Wunderground v.1.15,2013-02-02 22:44:00,
2013-02-02 17:49:00,28.9,8.1,30.04,SW,214,12.0,12.0,41,0.00,,,0.00,Wunderground v.1.15,2013-02-02 22:49:00,
2013-02-02 17:54:00,28.9,8.1,30.04,South,182,6.0,9.0,41,0.00,,,0.00,Wunderground v.1.15,2013-02-02 22:54:00,
2013-02-02 17:59:00,28.8,8.6,30.04,SSW,192,12.0,15.0,42,0.00,,,0.00,Wunderground v.1.15,2013-02-02 22:59:00,
2013-02-02 18:04:00,28.7,8.5,30.03,SW,219,5.0,8.0,42,0.00,,,0.00,Wunderground v.1.15,2013-02-02 23:04:00,
2013-02-02 18:09:00,28.7,8.5,30.04,South,191,2.0,9.0,42,0.00,,,0.00,Wunderground v.1.15,2013-02-02 23:09:00,
2013-02-02 18:14:00,28.7,8.5,30.04,South,175,5.0,9.0,42,0.00,,,0.00,Wunderground v.1.15,2013-02-02 23:14:00,
2013-02-02 18:19:00,28.6,8.9,30.04,SSW,206,3.0,9.0,43,0.00,,,0.00,Wunderground v.1.15,2013-02-02 23:19:00,
2013-02-02 18:24:00,28.6,8.9,30.04,SSW,202,5.0,8.0,43,0.00,,,0.00,Wunderground v.1.15,2013-02-02 23:24:00,
2013-02-02 18:29:00,28.5,9.3,30.03,SSW,213,6.0,11.0,44,0.00,,,0.00,Wunderground v.1.15,2013-02-02 23:29:00,
2013-02-02 18:34:00,28.5,9.3,30.04,SW,221,5.0,10.0,44,0.00,,,0.00,Wunderground v.1.15,2013-02-02 23:34:00,
2013-02-02 18:39:00,28.5,8.8,30.04,South,188,13.0,13.0,43,0.00,,,0.00,Wunderground v.1.15,2013-02-02 23:39:00,
2013-02-02 18:44:00,28.4,9.2,30.04,SSW,200,3.0,9.0,44,0.00,,,0.00,Wunderground v.1.15,2013-02-02 23:44:00,
2013-02-02 18:49:00,28.4,9.2,30.04,WSW,242,4.0,13.0,44,0.00,,,0.00,Wunderground v.1.15,2013-02-02 23:49:00,
2013-02-02 18:54:00,28.4,9.2,30.04,WSW,254,6.0,11.0,44,0.00,,,0.00,Wunderground v.1.15,2013-02-02 23:54:00,
2013-02-02 18:59:00,28.4,9.2,30.04,SW,223,5.0,11.0,44,0.00,,,0.00,Wunderground v.1.15,2013-02-02 23:59:00,
2013-02-02 19:04:00,28.4,9.7,30.04,SSW,205,7.0,11.0,45,0.00,,,0.00,Wunderground v.1.15,2013-02-03 00:04:00,
2013-02-02 19:09:00,28.4,10.2,30.04,SSW,202,3.0,11.0,46,0.00,,,0.00,Wunderground v.1.15,2013-02-03 00:09:00,
2013-02-02 19:14:00,28.3,9.6,30.03,WSW,240,1.0,12.0,45,0.00,,,0.00,Wunderground v.1.15,2013-02-03 00:14:00,
2013-02-02 19:19:00,28.4,9.7,30.03,WSW,240,2.0,12.0,45,0.00,,,0.00,Wunderground v.1.15,2013-02-03 00:19:00,
2013-02-02 19:24:00,28.3,10.1,30.03,SW,214,5.0,9.0,46,0.00,,,0.00,Wunderground v.1.15,2013-02-03 00:24:00,
2013-02-02 19:29:00,28.3,10.1,30.03,SSW,200,7.0,9.0,46,0.00,,,0.00,Wunderground v.1.15,2013-02-03 00:29:00,
2013-02-02 19:34:00,28.3,10.6,30.03,SSW,198,6.0,10.0,47,0.00,,,0.00,Wunderground v.1.15,2013-02-03 00:34:00,
2013-02-02 19:39:00,28.2,10.5,30.03,SSW,201,6.0,10.0,47,0.00,,,0.00,Wunderground v.1.15,2013-02-03 00:39:00,
2013-02-02 19:44:00,28.1,10.4,30.03,SW,215,8.0,8.0,47,0.00,,,0.00,Wunderground v.1.15,2013-02-03 00:44:00,
2013-02-02 19:49:00,28.1,10.9,30.03,SW,220,5.0,8.0,48,0.00,,,0.00,Wunderground v.1.15,2013-02-03 00:49:00,
2013-02-02 19:54:00,28.0,10.8,30.03,WSW,237,6.0,12.0,48,0.00,,,0.00,Wunderground v.1.15,2013-02-03 00:54:00,
2013-02-02 19:59:00,27.9,10.7,30.03,SW,236,2.0,12.0,48,0.00,,,0.00,Wunderground v.1.15,2013-02-03 00:59:00,
2013-02-02 20:04:00,27.9,10.7,30.03,WSW,241,2.0,7.0,48,0.00,,,0.00,Wunderground v.1.15,2013-02-03 01:04:00,
2013-02-02 20:09:00,27.9,10.7,30.03,West,272,3.0,7.0,48,0.00,,,0.00,Wunderground v.1.15,2013-02-03 01:09:00,
2013-02-02 20:14:00,27.8,10.6,30.03,WSW,245,5.0,9.0,48,0.00,,,0.00,Wunderground v.1.15,2013-02-03 01:14:00,
2013-02-02 20:19:00,27.8,10.6,30.03,WSW,240,6.0,9.0,48,0.00,,,0.00,Wunderground v.1.15,2013-02-03 01:19:00,
2013-02-02 20:24:00,27.8,11.1,30.03,SSW,211,3.0,10.0,49,0.00,,,0.00,Wunderground v.1.15,2013-02-03 01:24:00,
2013-02-02 20:29:00,27.7,11.0,30.03,WSW,249,3.0,10.0,49,0.00,,,0.00,Wunderground v.1.15,2013-02-03 01:29:00,
2013-02-02 20:34:00,27.7,11.0,30.03,SW,214,2.0,9.0,49,0.00,,,0.00,Wunderground v.1.15,2013-02-03 01:34:00,
2013-02-02 20:39:00,27.7,11.5,30.03,SW,218,8.0,9.0,50,0.00,,,0.00,Wunderground v.1.15,2013-02-03 01:39:00,
2013-02-02 20:44:00,27.6,11.4,30.03,SW,232,6.0,8.0,50,0.00,,,0.00,Wunderground v.1.15,2013-02-03 01:44:00,
2013-02-02 20:49:00,27.6,11.4,30.03,SW,227,6.0,9.0,50,0.00,,,0.00,Wunderground v.1.15,2013-02-03 01:49:00,
2013-02-02 20:54:00,27.6,11.4,30.03,WSW,256,4.0,6.0,50,0.00,,,0.00,Wunderground v.1.15,2013-02-03 01:54:00,
2013-02-02 20:59:00,27.6,10.9,30.03,WSW,238,3.0,7.0,49,0.00,,,0.00,Wunderground v.1.15,2013-02-03 01:59:00,
2013-02-02 21:04:00,27.6,11.4,30.03,SW,236,4.0,9.0,50,0.00,,,0.00,Wunderground v.1.15,2013-02-03 02:04:00,
2013-02-02 21:09:00,27.6,11.4,30.03,SW,225,5.0,9.0,50,0.00,,,0.00,Wunderground v.1.15,2013-02-03 02:09:00,
2013-02-02 21:14:00,27.5,11.3,30.03,WSW,247,3.0,8.0,50,0.00,,,0.00,Wunderground v.1.15,2013-02-03 02:14:00,
2013-02-02 21:19:00,27.5,11.7,30.03,SSW,198,5.0,8.0,51,0.00,,,0.00,Wunderground v.1.15,2013-02-03 02:19:00,
2013-02-02 21:24:00,27.4,11.2,30.03,SW,233,4.0,7.0,50,0.00,,,0.00,Wunderground v.1.15,2013-02-03 02:24:00,
2013-02-02 21:29:00,27.4,11.6,30.03,SSW,213,5.0,9.0,51,0.00,,,0.00,Wunderground v.1.15,2013-02-03 02:29:00,
2013-02-02 21:35:00,27.3,11.5,30.03,SW,228,3.0,9.0,51,0.00,,,0.00,Wunderground v.1.15,2013-02-03 02:35:00,
2013-02-02 21:40:00,27.2,11.4,30.02,SW,236,7.0,7.0,51,0.00,,,0.00,Wunderground v.1.15,2013-02-03 02:40:00,
2013-02-02 21:45:00,27.2,11.4,30.03,SW,227,5.0,9.0,51,0.00,,,0.00,Wunderground v.1.15,2013-02-03 02:45:00,
2013-02-02 21:49:00,27.2,11.4,30.03,WSW,257,9.0,9.0,51,0.00,,,0.00,Wunderground v.1.15,2013-02-03 02:49:00,
2013-02-02 21:55:00,27.1,11.3,30.02,SSW,213,5.0,8.0,51,0.00,,,0.00,Wunderground v.1.15,2013-02-03 02:55:00,
2013-02-02 22:00:00,27.1,11.3,30.02,WSW,237,3.0,4.0,51,0.00,,,0.00,Wunderground v.1.15,2013-02-03 03:00:00,
2013-02-02 22:05:00,27.1,11.3,30.02,WSW,237,4.0,9.0,51,0.00,,,0.00,Wunderground v.1.15,2013-02-03 03:05:00,
2013-02-02 22:10:00,27.2,11.9,30.02,WSW,244,4.0,4.0,52,0.00,,,0.00,Wunderground v.1.15,2013-02-03 03:10:00,
2013-02-02 22:15:00,27.1,11.8,30.02,West,264,4.0,7.0,52,0.00,,,0.00,Wunderground v.1.15,2013-02-03 03:15:00,
2013-02-02 22:20:00,27.2,11.9,30.02,SSW,205,3.0,3.0,52,0.00,,,0.00,Wunderground v.1.15,2013-02-03 03:20:00,
2013-02-02 22:25:00,27.2,11.4,30.02,SW,234,3.0,5.0,51,0.00,,,0.00,Wunderground v.1.15,2013-02-03 03:25:00,
2013-02-02 22:30:00,27.2,11.9,30.02,SW,215,2.0,4.0,52,0.00,,,0.00,Wunderground v.1.15,2013-02-03 03:30:00,
2013-02-02 22:35:00,27.2,11.9,30.02,WSW,238,2.0,7.0,52,0.00,,,0.00,Wunderground v.1.15,2013-02-03 03:35:00,
2013-02-02 22:40:00,27.3,11.5,30.02,WSW,254,1.0,3.0,51,0.00,,,0.00,Wunderground v.1.15,2013-02-03 03:40:00,
2013-02-02 22:45:00,27.3,12.0,30.01,WSW,249,2.0,7.0,52,0.00,,,0.00,Wunderground v.1.15,2013-02-03 03:45:00,
2013-02-02 22:50:00,27.3,11.5,30.01,WSW,241,3.0,3.0,51,0.00,,,0.00,Wunderground v.1.15,2013-02-03 03:50:00,
2013-02-02 22:55:00,27.3,12.0,30.01,SW,232,2.0,5.0,52,0.00,,,0.00,Wunderground v.1.15,2013-02-03 03:55:00,
2013-02-02 23:00:00,27.3,11.5,30.01,WSW,250,6.0,6.0,51,0.00,,,0.00,Wunderground v.1.15,2013-02-03 04:00:00,
2013-02-02 23:05:00,27.3,11.5,30.01,WSW,240,2.0,7.0,51,0.00,,,0.00,Wunderground v.1.15,2013-02-03 04:05:00,
2013-02-02 23:10:00,27.3,11.5,30.02,West,267,2.0,4.0,51,0.00,,,0.00,Wunderground v.1.15,2013-02-03 04:10:00,
2013-02-02 23:15:00,27.3,11.5,30.02,WSW,244,8.0,11.0,51,0.00,,,0.00,Wunderground v.1.15,2013-02-03 04:15:00,
2013-02-02 23:20:00,27.3,11.5,30.02,WSW,247,6.0,6.0,51,0.00,,,0.00,Wunderground v.1.15,2013-02-03 04:20:00,
2013-02-02 23:25:00,27.3,11.1,30.02,West,275,4.0,12.0,50,0.00,,,0.00,Wunderground v.1.15,2013-02-03 04:25:00,
2013-02-02 23:30:00,27.2,11.4,30.02,SW,218,7.0,7.0,51,0.00,,,0.00,Wunderground v.1.15,2013-02-03 04:30:00,
2013-02-02 23:35:00,27.2,11.4,30.02,West,266,4.0,9.0,51,0.00,,,0.00,Wunderground v.1.15,2013-02-03 04:35:00,
2013-02-02 23:40:00,27.2,11.4,30.02,WNW,287,6.0,6.0,51,0.00,,,0.00,Wunderground v.1.15,2013-02-03 04:40:00,
2013-02-02 23:45:00,27.2,11.9,30.02,West,265,6.0,10.0,52,0.00,,,0.00,Wunderground v.1.15,2013-02-03 04:45:00,
2013-02-02 23:50:00,27.1,11.8,30.02,West,281,5.0,9.0,52,0.00,,,0.00,Wunderground v.1.15,2013-02-03 04:50:00,
2013-02-02 23:55:00,27.0,11.7,30.02,West,265,14.0,14.0,52,0.00,,,0.00,Wunderground v.1.15,2013-02-03 04:55:00,